Location: Austin
(30.3000°N, 97.7500°W)
Time: 12:43:37
(UTC-05:00)

NOSS 3-2 (A) - Pass Details

Date: 08 April 2026
Orbit: 669 x 1534 km, 63.4° (Epoch: 2 January)

Event Time Altitude Azimuth Distance (km) Brightness Sun altitude
Rises 22:29:39 0° 330° (NNW) 4,092 7.6 -32.1°
Reaches altitude 10° 22:32:13 10° 330° (NNW) 3,234 6.9 -32.5°
Maximum altitude 22:40:19 85° 243° (WSW) 1,425 4.1 -34.0°
Enters shadow 22:40:53 80° 182° (S) 1,448 4.1 -34.1°
